This demonstration page uses our WeatherBlox Daily Observations layout. Learn more.

Left ArrowRight Arrow

34.16533, -84.80231

Hourly Observations for August 17, 2019

Temp ( °F °C ) Dew Point ( °F °C ) Humidity (%) Winds ( mph kmh ) Pressure ( in mb ) Visibility ( mi km ) Precip ( " mm )
12:53 am 00:53 Clear 69 20.6 64 17.8 84 84 Calm 29.95 1014 10 16 0.00 0.00
1:53 am 01:53 Clear 66 18.9 63 17.2 90 90 Calm 29.96 1014 10 16 0.00 0.00
2:53 am 02:53 Clear 67 19.4 64 17.8 91 91 Calm 29.95 1014 10 16 0.00 0.00
3:53 am 03:53 Clear 65 18.3 63 17.2 93 93 Calm 29.94 1014 9 14 0.00 0.00
4:53 am 04:53 Clear 65 18.3 63 17.2 93 93 Calm 29.95 1014 8 13 0.00 0.00
6:53 am 06:53 Clear 64 17.8 61 16.1 90 90 Calm 29.95 1014 8 13 0.00 0.00
7:53 am 07:53 Sunny 67 19.4 65 18.3 93 93 Calm 29.97 1015 9 14 0.00 0.00
8:53 am 08:53 Sunny 73 22.8 67 19.4 81 81 Calm 29.99 1016 10 16 0.00 0.00
9:53 am 09:53 Sunny 77 25 67 19.4 71 71 Calm 30.01 1016 10 16 0.00 0.00
10:53 am 10:53 Sunny 84 28.9 69 20.6 61 61 VRB 3 6 30.01 1016 10 16 0.00 0.00
11:53 am 11:53 Sunny 87 30.6 67 19.4 51 51 VRB 3 6 30.01 1016 10 16 0.00 0.00
12:53 pm 12:53 Sunny 90 32.2 65 18.3 44 44 VRB 5 7 30.00 1016 10 16 0.00 0.00
1:53 pm 13:53 Sunny 93 33.9 65 18.3 40 40 VRB 5 7 29.97 1015 10 16 0.00 0.00
2:53 pm 14:53 Sunny 94 34.4 63 17.2 36 36 Calm 29.95 1014 10 16 0.00 0.00
3:53 pm 15:53 Sunny 97 36.1 59 15 28 28 N 6 9 29.93 1014 10 16 0.00 0.00
4:53 pm 16:53 Sunny 96 35.6 57 13.9 27 27 ESE 3 6 29.92 1013 10 16 0.00 0.00
5:53 pm 17:53 Sunny 97 36.1 56 13.3 25 25 NNE 7 11 29.91 1013 10 16 0.00 0.00
6:53 pm 18:53 Sunny 95 35 55 12.8 26 26 NE 5 7 29.91 1013 10 16 0.00 0.00
7:53 pm 19:53 Sunny 85 29.4 64 17.8 50 50 Calm 29.92 1013 10 16 0.00 0.00
8:53 pm 20:53 Clear 76 24.4 64 17.8 67 67 Calm 29.93 1014 10 16 0.00 0.00
9:53 pm 21:53 Clear 73 22.8 64 17.8 74 74 Calm 29.95 1014 10 16 0.00 0.00
10:53 pm 22:53 Clear 72 22.2 64 17.8 76 76 Calm 29.97 1015 10 16 0.00 0.00
11:53 pm 23:53 Clear 69 20.6 63 17.2 81 81 Calm 29.96 1015 10 16 0.00 0.00

Powered by AerisWeather